Theta_e
312 313 313 313 314 314 315 315 315 315 316 316 316 317 317 317 317 316 316 316 316 317 317 317 318 318 318 318 318 318 318 318 319 319 319 319 318 318 317 317 316 316 316 316 316 316 316 316 316 316 316 316 316 317 317 317 318 318 318 318 318 318 317 317 318 319 319 319 319 319 318 318 317 316 316 315 315 315 315 316 317 318 318 317 316 315
311 312 313 314 315 315 315 314 314 314 315 315 316 317 317 317 316 315 315 315 316 316 317 317 317 317 318 318 318 318 318 319 319 319 319 318 318 317 317 316 316 316 316 316 316 316 316 316 316 316 316 316 316 316 316 316 316 316 316 316 316 316 316 317 318 318 318 318 318 318 317 318 318 317 316 315 315 315 315 317 317 318 317 316 316 315
309 311 312 313 313 314 314 314 314 314 314 315 316 317 317 316 315 315 314 314 315 315 316 317 317 317 317 318 318 318 319 319 319 319 318 317 317 316 316 316 316 316 316 316 316 316 316 316 316 316 316 316 316 315 315 315 315 315 315 315 315 315 316 317 318 318 318 317 317 317 317 317 317 317 316 316 315 315 316 317 317 317 317 316 315 315
307 308 309 309 310 310 311 312 312 313 313 314 315 315 315 314 314 314 314 314 314 315 316 316 317 317 317 317 317 318 318 318 318 317 317 317 316 316 316 316 316 316 317 317 316 316 316 316 316 316 316 316 316 315 315 315 314 314 314 314 315 315 317 317 317 317 317 316 316 317 317 317 317 317 316 316 316 316 316 317 317 317 316 316 315 314
307 307 307 308 308 309 309 309 310 311 311 312 312 312 312 312 313 313 313 313 314 315 316 316 316 316 316 317 317 317 317 316 316 316 317 317 317 317 317 317 317 317 317 317 317 317 316 316 316 316 316 316 316 316 315 315 314 314 314 314 315 316 317 317 316 316 315 315 315 315 316 316 316 317 316 316 316 316 317 317 317 317 316 316 315 315
307 307 308 308 308 308 308 308 309 309 310 310 310 310 310 311 311 312 312 313 314 315 315 316 316 316 316 316 316 316 316 316 316 316 317 317 317 317 318 318 318 318 318 317 317 317 317 316 316 316 316 316 316 315 315 314 314 313 313 314 314 316 316 316 315 315 314 315 315 315 315 316 316 316 316 316 316 316 317 317 317 316 316 315 315 315
308 308 308 308 308 308 309 308 308 309 309 309 309 309 309 310 310 311 311 312 313 314 315 315 316 316 316 316 316 316 316 315 316 316 316 317 317 317 317 317 318 318 318 317 317 317 317 317 317 317 316 316 315 315 314 314 313 313 313 314 314 315 316 315 314 314 314 314 314 314 315 315 316 316 316 316 316 316 317 316 316 316 316 315 315 314
307 307 307 308 308 308 308 308 308 308 308 308 308 308 308 309 309 310 310 311 312 313 314 314 315 315 315 315 315 315 315 315 316 316 316 316 316 316 316 317 317 317 317 317 317 317 317 317 317 317 316 316 315 314 314 313 313 313 313 313 314 315 315 314 314 314 314 314 314 314 314 315 315 315 315 316 316 317 317 316 316 316 315 315 314 314
305 305 306 306 306 306 306 306 306 306 307 307 307 308 308 308 308 309 309 309 310 311 312 313 314 315 315 315 315 315 315 315 316 316 316 316 316 316 316 316 316 316 316 316 316 316 316 316 316 316 316 315 314 314 313 313 312 312 313 313 314 314 314 314 313 313 313 313 314 314 314 314 314 315 315 316 316 317 317 316 315 315 315 314 313 313
305 305 305 305 305 305 306 306 306 306 307 307 307 307 308 308 308 309 309 309 309 309 310 311 312 313 314 314 315 315 315 315 315 315 315 315 315 315 315 315 315 315 316 316 316 316 316 316 316 315 315 314 313 313 313 312 312 312 312 313 313 314 314 313 313 313 313 313 313 314 314 314 314 314 315 316 316 317 317 316 315 314 314 313 313 312
306 306 306 306 305 306 306 306 307 307 307 307 307 307 307 308 308 308 309 309 309 309 309 309 310 311 311 312 313 313 314 313 313 314 314 314 314 314 314 314 314 314 314 315 315 315 315 315 315 314 314 313 313 312 312 312 311 311 312 313 313 313 313 313 312 312 313 313 313 313 313 314 314 314 315 315 316 316 316 315 314 314 313 312 312 312
305 305 305 306 306 306 306 307 307 307 308 307 307 307 307 308 308 308 308 309 309 309 309 309 309 309 310 310 311 311 312 312 311 312 312 312 312 312 312 312 312 313 313 313 313 314 314 314 314 313 313 313 312 312 312 311 311 311 311 312 312 313 312 312 312 312 312 312 312 313 313 313 313 314 315 315 316 316 316 315 314 313 313 312 311 311
302 303 304 305 306 306 306 306 306 307 307 307 307 307 307 307 307 307 308 308 309 309 310 309 309 309 309 310 310 310 310 310 310 310 310 310 311 311 311 311 311 311 312 312 312 312 312 312 313 313 312 312 312 312 311 311 311 311 311 312 312 312 312 312 312 312 312 312 312 312 313 313 314 314 315 315 315 315 315 314 314 313 312 311 311 310
300 301 302 303 304 305 305 306 306 306 305 306 306 306 307 307 307 307 307 307 308 308 309 309 309 309 308 309 309 309 309 309 309 309 309 309 310 310 310 310 310 310 310 310 311 311 311 312 312 312 312 312 312 311 311 311 311 311 311 311 312 312 312 312 311 311 311 311 312 312 313 314 314 315 315 315 315 315 314 314 313 312 311 311 310 310
299 300 301 302 302 303 304 304 305 305 305 305 305 306 306 306 307 307 307 307 307 308 308 308 308 308 308 308 308 308 308 308 308 307 307 308 309 309 309 309 309 309 309 309 310 310 311 311 312 312 312 312 311 311 311 311 310 310 311 311 312 312 311 311 311 311 311 311 311 312 313 314 314 315 315 314 314 314 313 312 312 311 310 310 310 309
298 298 299 300 301 301 302 303 304 304 305 305 305 305 305 306 306 307 307 307 307 307 307 306 307 307 307 307 307 308 308 307 307 307 307 307 307 307 308 308 308 308 308 308 309 309 310 311 311 312 312 312 311 311 310 310 310 310 311 311 311 311 311 311 311 311 311 311 311 312 313 313 314 314 313 313 312 312 311 311 310 310 310 310 309 309
296 297 298 298 299 300 300 301 303 304 304 305 305 305 305 305 306 306 306 307 307 307 306 306 306 307 307 307 306 306 307 307 306 306 306 306 306 306 307 307 307 307 307 307 308 308 309 310 311 311 312 312 311 311 310 310 310 310 311 311 311 311 311 311 311 311 311 311 311 312 312 313 313 313 312 312 311 311 310 310 310 310 309 309 309 308
296 296 296 297 297 298 298 299 301 303 304 305 305 305 305 305 305 305 306 306 306 306 306 306 306 306 307 307 306 305 306 306 306 305 306 306 306 305 305 305 306 306 307 307 307 308 308 309 310 311 311 312 311 311 310 310 310 310 310 311 311 311 311 311 311 311 311 311 311 311 312 312 312 312 311 311 311 310 310 310 310 310 309 309 308 307
295 295 295 296 296 296 297 298 300 301 303 305 305 305 305 305 305 305 306 306 306 306 306 306 305 305 306 306 306 304 304 305 305 304 305 305 305 305 304 304 305 305 306 306 306 307 307 308 309 310 311 311 311 311 310 309 309 310 310 310 311 311 311 310 310 311 311 310 310 311 311 311 311 311 311 311 310 310 310 310 310 310 309 309 308 307
295 295 295 295 295 295 296 297 298 299 300 302 304 304 305 305 305 306 306 306 306 306 306 305 305 305 305 306 305 305 304 304 304 304 304 304 304 304 304 304 304 304 305 305 306 306 306 307 308 309 309 310 311 311 310 310 309 309 310 310 310 310 310 310 310 310 310 310 310 310 310 310 310 310 310 310 310 310 310 310 310 309 309 308 307 307
295 294 294 294 294 294 295 295 295 296 297 300 301 303 304 304 304 305 305 306 306 306 306 305 305 305 305 305 305 304 304 304 303 303 303 304 304 303 303 303 303 303 304 304 305 305 305 306 306 307 308 309 310 310 310 310 309 309 310 310 310 310 310 310 310 310 310 310 310 310 310 310 310 310 310 310 309 309 309 309 309 309 308 308 307 306
294 294 294 294 294 294 294 294 294 295 296 298 299 301 302 303 304 304 304 305 305 305 306 305 305 305 305 305 305 304 304 303 303 303 303 303 304 303 303 302 302 302 303 303 304 304 304 305 305 306 307 308 309 309 310 310 310 310 310 310 310 310 310 310 310 309 309 309 309 309 309 309 309 309 309 309 309 309 309 309 309 308 308 307 306 305
294 294 294 294 294 294 294 294 295 295 296 297 298 299 300 301 302 303 303 303 304 305 305 305 305 305 304 304 304 304 304 303 303 303 303 303 304 304 302 302 302 302 302 302 303 303 303 304 304 305 306 306 307 308 309 309 309 310 310 310 310 310 309 309 309 309 309 309 309 309 309 309 309 308 308 308 308 308 308 308 308 307 307 306 305 305
294 294 294 294 294 294 294 295 295 295 296 296 297 298 299 299 300 301 301 301 302 303 304 304 304 304 304 304 304 303 303 303 303 303 303 303 303 303 302 302 301 301 302 302 302 302 303 303 303 304 304 305 306 307 308 309 309 309 310 309 309 309 309 309 309 309 308 308 308 308 308 308 308 307 307 307 307 307 307 307 307 306 306 305 305 305
295 295 295 295 295 295 295 295 295 296 296 296 297 297 298 298 299 299 299 300 301 301 302 302 303 303 303 303 302 302 301 302 303 303 303 303 303 303 301 301 301 301 301 302 302 302 303 303 303 304 304 305 306 307 307 308 309 309 309 309 309 309 309 309 308 308 308 308 308 307 307 307 307 306 306 306 306 306 306 306 306 305 305 305 305 304
294 295 295 295 295 296 296 296 296 296 297 297 297 298 298 298 298 298 298 299 299 300 301 302 303 303 303 302 301 301 300 301 302 302 302 303 303 302 300 300 301 301 301 301 302 302 302 303 303 304 304 305 306 307 307 308 308 309 309 309 309 309 308 308 308 308 308 307 307 307 306 306 306 306 305 305 305 305 305 305 305 304 304 304 304 304
292 292 293 294 295 295 296 296 296 296 297 297 297 298 298 298 298 298 298 298 299 300 301 302 303 303 303 303 302 301 300 300 301 301 302 303 302 301 299 300 301 301 301 301 301 302 302 302 303 303 304 305 306 306 307 308 308 308 309 309 308 308 308 307 307 307 307 307 306 306 306 305 305 305 305 305 305 305 304 304 304 304 304 303 302 302
291 291 291 292 293 293 294 294 294 294 295 295 296 297 297 298 298 298 298 298 299 300 301 302 302 303 303 303 303 301 300 300 300 301 302 302 303 301 299 299 300 301 300 300 300 300 301 301 301 302 303 304 305 306 307 307 308 308 308 308 308 307 307 307 307 307 306 306 306 305 305 305 304 304 304 304 304 304 304 304 303 303 302 301 300 299
290 290 290 290 291 291 291 291 291 292 292 293 294 295 296 297 298 298 298 298 299 300 300 301 302 302 303 303 302 301 300 300 300 300 301 302 302 302 299 299 300 300 300 298 297 297 298 299 300 301 302 303 304 305 305 306 307 307 307 307 307 306 306 306 306 306 306 306 305 305 304 304 304 303 303 303 303 303 303 303 302 301 299 298 297 296
289 289 289 289 289 289 289 290 290 291 291 292 293 293 294 296 297 298 298 298 299 299 299 300 301 302 302 302 301 299 300 300 300 300 300 301 301 300 298 299 299 299 299 297 296 295 296 297 298 299 300 301 302 303 304 305 305 305 305 305 305 305 305 305 305 305 305 305 304 304 303 303 303 302 302 302 302 302 301 300 299 298 297 296 295 294
289 289 289 289 289 289 289 290 290 290 291 292 292 293 294 295 296 297 298 298 298 299 299 300 301 301 302 302 301 300 300 300 300 300 300 301 301 300 298 298 298 298 298 298 297 296 296 296 296 298 299 300 301 302 303 304 304 303 303 303 302 302 302 303 303 304 304 304 303 303 302 302 301 301 301 300 300 299 298 298 297 296 295 294 293 293
289 289 289 289 289 289 290 290 290 290 291 291 292 292 293 294 295 296 297 298 299 299 299 299 300 301 301 302 302 302 302 300 300 300 300 301 301 300 299 299 298 297 298 299 300 299 298 298 296 296 297 299 300 300 302 302 302 302 302 301 301 301 300 301 301 301 301 302 302 301 301 300 300 299 299 298 297 296 296 295 295 295 294 294 293 294
290 290 290 290 290 291 291 291 291 291 291 291 291 292 292 293 294 295 296 297 298 298 299 299 299 300 301 301 302 302 302 300 300 300 300 301 301 300 299 299 298 297 297 298 299 300 300 298 296 295 296 297 298 299 300 300 301 301 301 300 300 299 299 299 299 299 299 299 299 299 299 298 298 297 296 296 295 294 294 293 293 294 293 293 293 294
290 290 291 291 291 291 291 291 291 291 291 291 291 291 292 292 293 294 295 296 297 298 299 299 299 299 300 300 301 301 301 300 300 300 300 300 300 299 298 298 298 297 296 297 297 297 298 297 296 294 294 295 296 297 298 299 299 299 299 299 299 298 298 298 298 298 297 297 297 296 296 296 295 295 295 294 293 293 293 292 292 293 293 292 293 293
289 289 289 290 290 290 290 290 290 290 291 291 291 291 292 292 293 294 295 296 297 297 298 299 299 299 299 300 300 301 301 300 300 300 300 300 300 299 298 298 298 297 296 296 296 295 295 295 295 294 293 293 294 295 296 297 297 298 298 298 298 297 297 297 297 296 296 296 295 295 295 294 294 294 293 293 293 293 293 292 292 292 292 292 292 293
289 289 289 289 289 289 289 289 290 290 291 291 291 292 292 292 293 294 294 295 296 297 298 298 299 299 299 299 300 301 301 301 300 300 300 300 300 299 298 298 298 297 297 297 296 296 295 295 295 295 294 293 293 293 294 295 296 296 296 297 297 296 296 296 296 296 295 295 295 294 294 294 294 293 293 293 293 293 292 292 292 291 291 292 292 293
289 289 289 289 289 289 289 290 290 290 291 291 291 292 292 292 293 293 294 295 296 297 297 298 298 298 299 299 299 300 300 300 300 300 300 300 300 300 299 298 298 298 298 297 297 296 296 295 295 294 294 294 294 293 293 293 294 295 295 295 295 295 295 295 295 295 295 295 294 294 294 294 293 293 293 293 293 293 292 292 292 291 292 292 292 293
290 290 290 290 290 290 290 290 290 290 291 291 291 291 292 292 292 293 293 294 295 296 297 297 298 298 298 298 299 299 300 300 299 299 299 300 300 300 300 299 298 298 298 298 297 296 296 295 295 295 295 295 294 293 292 292 292 293 294 294 294 294 294 294 294 294 294 294 294 294 293 293 293 293 293 293 293 293 292 292 292 292 292 292 293 294
290 290 290 291 291 291 291 291 291 291 291 291 291 291 292 292 292 292 293 293 294 295 296 297 298 298 298 298 298 298 299 299 299 299 299 299 300 300 300 299 298 298 298 298 297 297 296 296 296 295 295 295 294 293 292 292 292 293 293 293 293 293 293 293 293 294 294 293 293 293 293 293 293 293 293 293 293 293 293 292 292 292 292 292 293 294
290 290 290 290 290 290 291 291 291 291 292 292 292 292 292 292 292 293 293 293 294 294 295 296 297 297 298 298 298 298 298 299 299 298 298 298 299 300 300 299 298 298 297 297 297 297 296 296 296 296 295 295 294 293 292 292 292 292 293 293 293 293 293 293 293 293 293 293 293 293 293 293 293 293 293 293 293 293 293 292 292 291 291 292 293 293
289 289 289 289 289 290 290 290 290 291 291 292 292 292 292 293 293 293 293 294 294 294 295 296 296 297 297 297 297 298 298 299 298 298 297 298 299 300 299 299 299 298 297 297 297 297 297 296 296 296 295 295 294 293 292 292 292 292 293 293 292 292 292 293 293 293 293 293 293 292 292 292 292 292 293 293 293 293 292 292 292 291 291 292 292 293
289 289 289 289 289 289 289 289 290 290 291 291 291 292 292 292 293 294 294 295 295 295 296 296 296 296 297 297 297 297 298 298 298 298 297 298 299 300 299 299 299 298 297 297 297 296 297 296 296 296 295 295 294 293 292 291 292 292 293 293 293 292 292 292 292 292 292 292 292 292 292 292 292 292 292 292 292 292 292 292 291 291 291 291 292 292
288 289 289 289 289 289 289 289 290 290 290 290 291 291 291 292 293 293 294 294 295 295 296 296 296 296 297 297 297 297 297 298 298 298 298 298 299 299 299 299 298 298 297 297 296 296 296 296 296 296 296 295 294 293 292 292 292 292 292 293 292 292 292 292 292 292 292 292 292 292 292 292 292 292 292 292 292 292 292 291 291 291 291 291 291 292
289 289 289 289 289 289 289 290 290 290 290 290 290 291 291 292 292 293 293 294 294 295 296 296 296 296 296 296 297 297 297 297 298 298 298 298 298 299 299 299 298 298 298 297 297 296 296 296 296 296 295 295 294 293 292 292 292 292 292 292 292 292 292 291 291 291 291 291 291 291 292 292 292 292 292 292 292 292 292 291 291 291 291 290 291 291
289 289 289 290 290 290 290 290 290 290 290 290 291 291 291 291 292 293 293 294 294 295 296 296 296 295 295 296 297 297 296 296 297 297 297 298 298 299 299 298 298 298 298 297 297 297 296 296 296 296 295 295 294 293 293 292 292 292 292 292 292 292 292 291 291 291 291 291 291 291 291 291 291 291 291 291 291 291 291 291 291 290 290 290 290 290
288 289 289 290 290 290 290 290 291 291 291 291 291 291 291 292 292 293 293 294 295 295 296 296 295 294 295 296 297 296 295 294 295 295 296 297 297 298 298 298 298 298 298 297 297 297 296 296 296 295 295 294 294 293 293 292 292 292 292 292 292 292 291 291 291 291 291 291 291 291 291 291 291 291 291 291 291 291 291 291 290 290 290 290 290 290
287 288 288 289 289 290 290 290 291 291 291 292 292 292 292 292 292 293 294 294 295 295 296 296 295 295 295 296 296 296 295 294 294 294 294 295 296 296 297 297 298 298 297 297 297 297 297 296 296 295 294 294 293 293 292 292 292 292 292 292 291 291 291 291 291 291 291 291 291 291 291 291 291 290 290 290 290 290 291 291 290 290 290 289 289 289
287 288 288 288 289 289 290 290 291 291 291 292 292 292 292 292 293 293 294 294 295 295 295 295 295 295 295 295 296 295 295 294 294 293 293 294 294 295 296 296 297 297 297 297 296 296 296 296 296 295 295 294 293 293 292 292 292 292 292 292 291 291 291 290 290 291 291 291 290 290 290 290 290 290 290 289 289 289 290 290 290 290 290 289 289 289
288 288 288 289 289 289 290 290 291 291 291 292 292 293 293 293 293 293 293 294 295 295 295 295 295 294 294 295 295 294 294 294 294 293 293 293 294 294 295 295 295 295 295 295 295 295 295 295 295 294 294 294 293 293 292 292 292 292 292 291 291 291 290 290 290 290 290 290 290 290 290 290 290 290 290 289 289 288 288 289 290 290 290 289 289 289
288 288 289 289 289 289 290 290 290 291 291 292 292 293 293 293 293 293 294 294 294 295 295 295 294 294 294 294 294 293 293 293 293 293 293 293 293 293 293 293 293 293 292 292 292 292 292 292 293 293 293 293 293 292 292 292 291 291 291 291 291 291 290 290 290 290 290 290 290 290 290 290 290 290 289 289 288 288 287 288 289 289 290 289 289 288
289 289 289 289 289 290 290 290 291 291 291 292 292 292 292 293 293 294 294 294 294 294 295 294 294 294 294 294 293 293 293 293 293 292 292 292 292 293 292 292 292 292 291 291 291 291 291 290 290 291 291 292 292 292 292 292 291 291 291 291 290 290 290 290 290 289 289 289 289 289 290 290 289 289 289 289 288 287 287 287 287 288 289 289 288 288
Wind_Speed
22 23 24 24 24 24 25 25 26 26 27 27 27 26 25 23 23 22 22 23 24 25 27 29 31 33 35 35 36 35 35 35 34 34 32 30 29 27 25 24 23 23 23 22 22 22 22 22 22 23 23 24 24 24 24 24 23 23 23 23 23 23 22 22 22 22 23 23 23 23 21 20 18 18 17 17 17 16 16 16 19 23 27 28 28 26
22 22 22 21 21 23 24 25 26 26 27 27 27 25 24 23 22 23 23 24 24 25 26 27 29 30 32 33 35 35 36 36 35 34 32 30 28 27 26 25 24 24 23 23 23 23 23 24 24 24 24 24 24 24 23 23 23 23 23 23 22 22 21 21 21 22 22 22 21 20 19 18 18 19 19 19 18 18 18 18 21 25 27 28 27 25
20 20 21 21 21 21 23 24 25 25 25 25 24 24 23 23 23 24 25 26 26 26 26 27 27 28 29 30 31 32 32 32 32 31 30 28 27 26 25 25 25 25 25 25 25 25 25 25 25 25 25 24 24 23 23 23 22 22 22 21 21 20 20 19 19 20 20 19 19 18 18 18 19 19 20 20 20 19 19 20 23 26 28 28 26 23
20 20 21 22 23 23 24 24 25 25 24 24 24 24 24 25 25 26 27 27 27 27 27 27 26 26 26 27 27 27 27 27 27 26 26 25 25 25 25 25 26 26 27 27 27 27 26 26 26 25 24 24 23 22 22 22 22 22 21 20 20 19 18 18 18 17 17 17 17 17 18 19 20 20 21 20 20 20 21 22 24 27 28 28 25 23
21 21 20 20 21 22 24 25 25 25 26 26 27 27 27 27 28 28 28 28 28 28 28 27 27 26 25 25 25 25 24 24 23 23 23 23 24 24 25 26 27 28 29 29 28 28 27 27 26 25 24 23 22 22 22 22 21 21 20 20 19 19 19 18 17 17 16 16 17 18 20 21 21 21 21 21 21 21 23 24 26 28 29 27 25 23
23 21 20 20 21 22 23 25 25 25 26 27 28 29 29 29 29 29 29 29 29 29 29 28 27 26 25 25 25 24 24 23 23 22 22 23 24 25 26 27 28 29 29 29 29 28 28 27 27 26 25 23 22 21 21 20 20 19 19 19 19 20 20 19 18 17 17 17 18 19 21 21 22 22 21 21 21 23 25 26 28 29 29 27 24 22
24 22 20 20 21 22 22 23 25 25 25 25 26 27 28 29 30 29 29 29 29 30 30 29 28 27 26 26 25 26 26 25 25 24 24 24 24 25 26 27 27 28 28 28 28 28 27 27 27 26 25 24 22 21 20 19 18 18 18 18 20 21 21 20 19 18 18 18 19 20 22 22 22 22 22 22 23 25 26 27 29 29 28 26 23 22
24 23 21 21 21 21 21 22 23 24 24 24 23 24 25 26 27 28 29 29 30 30 31 30 29 29 28 27 27 27 28 27 27 27 26 26 26 26 26 26 27 27 27 26 26 26 26 26 26 26 25 24 22 21 20 18 17 17 17 18 20 22 22 21 20 19 19 20 20 21 23 23 23 23 22 23 24 26 28 29 29 28 27 24 23 22
25 25 24 23 22 22 22 22 22 23 23 23 23 23 23 23 24 24 25 27 29 30 31 31 31 31 30 30 29 29 30 30 30 29 28 28 27 26 26 26 26 26 26 25 25 24 24 25 25 24 24 23 22 21 20 19 18 18 18 19 21 23 22 21 20 20 20 21 22 23 24 25 25 24 23 24 26 28 30 30 29 28 26 24 23 23
25 25 25 24 23 22 22 23 23 22 22 22 23 23 23 23 23 22 22 22 25 28 29 31 31 32 32 32 32 31 31 31 31 31 30 29 28 27 26 26 26 26 26 25 25 24 24 24 24 23 23 23 23 22 22 21 20 19 19 20 22 23 23 21 20 20 21 22 22 24 25 26 25 25 24 26 28 30 31 31 29 28 26 25 24 24
23 23 23 24 23 22 21 22 22 22 22 22 23 24 24 24 23 21 20 21 22 24 25 28 30 31 31 32 32 33 32 32 31 31 30 29 28 27 26 26 26 26 25 25 25 25 24 24 24 24 23 23 23 23 23 23 21 21 21 22 23 23 23 21 21 21 22 22 23 24 25 25 25 25 26 27 30 32 32 31 30 28 27 26 25 25
22 21 21 22 21 20 20 19 20 20 20 20 20 20 22 22 22 21 21 21 21 22 22 25 28 29 30 30 31 32 32 31 30 30 29 28 27 26 25 25 25 25 25 24 24 24 25 25 24 24 24 24 24 25 25 24 23 22 22 23 24 24 23 22 21 21 22 22 22 23 24 24 25 26 27 29 31 33 33 32 30 29 28 28 27 26
22 22 21 22 20 19 17 16 15 15 17 17 16 17 19 19 19 20 21 21 22 22 21 22 24 26 29 31 31 30 30 29 29 28 27 26 26 25 24 24 24 24 24 23 23 24 24 25 25 25 25 25 26 26 26 26 25 24 24 25 25 24 23 22 22 22 23 22 22 22 23 24 25 27 29 31 33 34 34 33 32 31 30 30 29 26
21 21 21 21 21 20 18 16 16 17 17 17 18 19 20 19 20 20 21 21 22 23 23 22 23 24 27 28 29 29 28 26 26 25 25 26 25 25 24 24 24 24 24 23 23 24 25 25 27 27 27 27 27 27 27 27 26 26 26 27 26 25 24 23 23 23 23 23 22 22 23 26 28 31 32 34 35 36 36 35 34 33 32 30 28 25
19 19 18 18 19 21 20 18 17 19 20 19 19 20 21 21 22 22 21 21 22 23 22 23 23 24 25 26 27 28 26 25 23 22 22 25 26 26 25 24 24 24 24 24 24 25 25 26 28 30 30 30 29 29 28 28 27 27 28 28 27 26 25 24 24 24 24 23 23 24 26 29 31 34 36 37 37 37 37 36 34 33 31 28 25 22
20 19 17 17 19 20 21 20 20 21 21 21 20 20 20 21 21 21 20 22 21 20 18 18 18 18 21 24 26 27 26 24 22 21 21 22 25 27 26 25 25 25 25 25 25 26 26 26 28 30 32 32 32 31 29 28 28 29 30 30 29 27 26 26 26 26 26 25 24 25 28 30 33 35 37 38 38 37 36 34 33 31 28 25 23 21
20 19 19 19 19 21 23 22 22 22 22 22 22 21 21 21 22 22 21 21 21 19 18 16 11 8 12 18 22 24 24 23 23 23 23 21 23 26 26 25 25 26 27 27 27 27 27 27 27 29 31 34 34 32 30 29 29 31 32 32 31 29 28 28 28 28 27 27 26 27 29 31 33 35 36 37 36 35 33 31 29 27 26 23 22 21
20 20 19 19 20 22 23 23 22 21 20 21 21 22 22 24 24 23 23 23 21 20 19 18 13 8 6 12 15 17 20 21 21 21 21 21 21 23 25 25 25 26 27 28 29 29 29 29 28 29 30 34 35 33 31 30 30 32 34 34 32 31 30 30 30 30 29 29 28 28 29 30 32 34 35 34 33 31 30 29 27 26 25 23 23 22
20 20 21 21 22 23 23 23 22 21 20 19 20 20 21 22 22 23 24 24 23 22 22 20 19 18 15 18 18 16 16 18 18 18 18 18 19 20 23 23 24 26 27 28 29 30 30 30 30 30 31 33 35 34 32 31 31 33 35 35 34 32 31 31 31 31 31 31 30 29 29 30 31 32 33 32 31 30 29 28 27 27 26 25 24 24
22 21 22 22 23 24 24 24 24 23 23 22 21 20 19 20 21 22 24 24 24 24 25 24 23 22 22 23 22 20 17 17 17 16 16 16 18 20 22 22 23 25 26 28 29 30 30 31 31 31 32 33 34 34 33 32 33 34 36 37 36 34 33 33 33 33 33 33 32 31 30 30 30 31 31 31 31 30 29 29 29 28 27 26 26 25
24 25 26 24 23 24 25 25 26 26 26 25 24 23 21 20 20 21 23 24 24 25 26 24 25 26 25 23 23 23 21 20 19 17 15 16 18 21 22 23 24 24 24 26 28 29 30 31 32 32 32 33 34 34 34 34 34 36 38 38 37 36 34 34 34 34 35 34 33 33 32 31 31 31 31 31 30 30 30 30 29 29 28 27 26 26
25 26 26 25 25 26 27 27 27 27 27 26 26 25 23 20 19 19 21 21 23 24 25 25 26 27 26 25 26 26 26 24 22 18 14 13 15 19 21 23 24 24 23 24 26 28 29 30 31 32 32 33 33 33 34 35 36 38 39 39 38 37 36 35 35 36 36 35 35 34 33 32 32 31 31 31 31 30 30 30 30 30 29 27 26 26
28 29 28 27 27 28 28 28 27 27 26 26 27 27 27 24 22 21 21 20 21 22 23 25 26 27 27 28 28 28 29 29 27 22 16 11 13 17 19 21 23 23 22 22 24 26 28 29 30 31 31 32 32 33 33 35 37 39 40 40 39 38 37 37 36 36 37 36 35 34 33 33 33 32 32 32 31 31 31 31 31 30 29 27 27 26
30 30 29 28 28 28 27 27 27 26 26 27 27 28 29 29 29 29 28 26 25 24 24 24 24 24 27 29 29 29 30 31 29 25 19 16 15 15 16 19 21 21 21 22 24 25 26 27 29 30 30 31 31 32 33 35 37 39 41 41 40 39 39 38 37 37 37 36 35 34 34 33 33 33 33 32 32 32 32 31 31 30 28 27 26 25
30 30 29 28 28 28 28 29 29 29 29 28 28 27 27 28 29 31 32 31 30 28 27 25 23 23 27 28 27 27 30 31 30 27 21 17 17 17 16 18 19 19 19 22 24 24 24 26 27 28 29 30 31 32 33 35 37 40 41 41 41 40 40 39 38 38 37 36 35 34 34 33 34 33 33 32 32 32 32 31 30 29 28 27 26 25
32 32 32 32 32 32 33 34 34 34 33 32 31 29 28 27 28 29 29 30 30 28 26 22 20 22 28 26 23 24 27 29 31 30 25 18 16 16 16 18 19 18 18 21 23 23 24 25 27 28 30 31 32 32 33 35 37 40 41 42 41 41 41 40 39 39 38 37 35 34 33 34 34 34 33 33 32 32 32 31 30 29 27 26 25 23
34 35 36 36 36 35 35 35 34 34 34 34 34 33 32 30 28 26 27 28 28 26 23 17 14 17 23 24 22 22 24 26 29 31 28 22 15 12 15 19 20 19 18 19 21 23 23 24 26 29 30 31 32 33 34 36 38 40 41 42 42 42 42 41 40 39 38 37 35 34 34 34 34 34 33 33 32 32 32 31 30 28 26 25 23 22
34 35 36 37 37 37 36 35 34 34 33 33 33 33 33 31 27 25 26 27 25 22 20 15 12 11 11 15 19 21 22 24 27 30 30 23 16 13 14 19 21 20 17 17 18 20 21 23 25 28 30 31 32 34 36 38 39 41 42 42 43 43 43 42 41 40 39 37 35 34 34 34 34 34 33 33 33 32 31 30 28 26 25 23 22 21
32 34 36 37 38 38 38 38 37 36 35 34 33 32 32 30 28 26 26 25 22 20 20 18 16 13 11 15 15 16 19 22 26 30 31 23 16 13 14 18 20 20 17 13 12 15 18 21 24 26 28 30 31 32 35 39 41 42 42 43 43 43 43 43 42 40 39 37 36 35 34 34 34 34 33 32 32 31 30 28 26 24 23 22 22 21
30 32 33 35 36 36 36 36 36 36 35 34 33 32 31 30 30 28 27 24 22 22 23 20 18 16 16 14 9 7 12 19 26 30 31 24 16 11 14 17 19 20 18 13 7 5 10 16 22 25 27 28 28 29 32 37 40 41 41 41 41 42 42 42 42 41 39 37 36 35 35 34 34 33 32 31 30 29 27 26 25 24 23 22 22 22
31 31 31 32 32 32 32 32 32 32 32 32 31 30 29 29 29 28 27 25 24 24 24 22 19 17 16 11 5 3 5 15 24 30 31 24 17 13 15 16 18 20 22 16 6 1 3 8 15 22 26 26 25 26 29 34 38 39 39 38 38 38 38 40 41 40 39 37 36 35 34 33 32 31 30 29 27 26 25 25 24 24 23 23 23 23
30 30 30 30 29 29 29 29 28 28 29 29 29 29 28 27 27 27 27 26 26 26 25 25 22 20 19 15 11 8 5 13 23 30 32 25 18 15 18 18 18 20 24 22 15 7 3 2 8 17 23 24 23 24 26 31 35 37 37 37 36 35 35 36 37 37 36 35 35 34 33 32 30 29 28 26 25 25 24 25 25 25 24 24 25 25
27 27 27 27 27 27 27 26 26 26 27 28 29 28 28 28 28 28 27 27 28 28 27 25 23 21 19 20 20 18 14 15 23 31 33 28 19 15 18 19 19 19 22 23 20 14 7 5 7 13 19 22 22 22 25 29 33 36 37 37 36 34 33 33 34 33 33 32 31 31 30 29 28 27 26 25 25 24 25 25 25 25 25 26 26 27
28 27 26 27 27 27 26 26 26 27 28 28 29 29 28 28 29 28 28 28 28 29 28 26 24 22 20 19 19 21 22 20 24 30 33 31 23 17 19 20 20 19 20 19 17 13 8 9 10 11 13 18 20 21 24 27 30 34 36 37 37 35 34 33 32 31 30 30 29 28 27 27 26 25 25 25 25 25 25 25 25 25 25 26 27 28
30 29 29 29 29 29 29 28 28 28 28 29 29 29 28 28 28 28 28 28 29 29 29 29 28 26 23 20 18 19 22 23 25 29 33 32 26 21 20 21 21 20 19 17 15 12 7 10 13 13 11 13 16 18 22 25 28 32 34 36 36 36 35 34 34 32 31 30 30 29 28 27 26 25 25 25 25 25 25 25 25 25 25 26 27 29
29 29 30 30 30 30 30 29 29 29 29 29 28 28 28 27 27 28 28 28 28 29 29 30 30 30 29 26 24 22 23 24 27 30 34 35 31 25 21 21 22 23 21 19 18 15 10 10 13 15 15 12 11 14 18 23 26 29 31 32 33 34 34 34 34 34 32 32 31 31 30 29 28 27 26 26 25 25 25 25 25 25 25 26 27 29
30 30 30 29 29 28 28 28 28 28 28 28 28 27 27 27 27 27 27 27 28 28 29 30 30 31 31 31 31 30 28 26 28 32 35 36 34 29 24 22 24 26 24 21 19 18 14 11 11 13 15 14 12 11 15 21 24 26 27 29 30 31 31 33 34 34 33 33 32 32 32 31 29 28 27 25 24 24 23 23 24 25 25 26 27 29
27 28 27 26 25 25 26 26 27 27 27 27 27 27 27 27 27 27 27 27 28 28 29 29 29 30 31 32 33 34 33 29 28 32 35 36 35 32 28 24 25 28 28 26 23 21 18 11 8 8 9 13 15 15 18 21 22 22 24 26 28 29 30 31 32 33 33 33 33 33 32 31 30 28 27 26 25 24 23 22 23 24 25 26 27 28
25 25 25 24 24 24 24 25 26 27 26 26 27 27 27 28 29 29 28 28 28 28 28 28 28 29 30 31 32 33 33 31 30 30 33 35 35 33 31 27 26 28 30 29 27 25 22 17 12 9 7 10 14 17 20 22 22 22 23 23 24 26 28 29 31 32 32 32 31 32 32 32 31 29 27 27 26 25 24 23 24 24 25 25 26 27
25 25 26 26 26 25 25 25 25 25 24 25 26 26 27 27 28 29 29 29 28 28 28 28 28 28 29 30 30 31 32 32 31 31 32 35 36 35 33 29 28 29 30 29 27 26 25 22 19 18 18 16 15 17 19 21 23 24 23 21 19 20 25 28 30 31 31 31 31 31 32 32 31 30 28 27 27 26 25 24 24 25 25 26 26 26
25 25 27 27 27 27 27 26 25 25 24 24 25 26 26 26 26 27 28 27 27 27 27 27 27 27 28 29 30 31 31 32 33 33 34 37 39 38 34 31 30 30 30 29 27 25 25 24 21 19 20 20 20 20 20 21 23 25 25 22 20 21 25 27 29 29 30 30 31 32 32 32 31 29 28 27 26 26 26 26 26 25 25 27 28 28
27 27 27 27 26 26 25 25 25 25 24 24 24 25 25 26 26 25 24 24 24 24 25 25 25 25 24 25 27 29 30 32 33 34 36 38 41 40 37 33 31 31 31 29 26 25 25 25 23 21 21 22 21 20 19 21 24 25 25 24 23 23 23 25 27 29 29 30 30 31 31 31 30 29 27 26 26 27 27 28 27 26 26 27 29 29
28 27 27 26 26 25 25 24 24 24 24 24 24 25 26 26 26 26 26 25 23 22 23 23 22 22 22 23 24 26 29 31 32 34 36 39 41 41 38 34 32 32 31 28 25 24 24 24 24 23 25 24 23 21 19 21 23 24 24 25 25 21 17 19 25 29 30 30 30 31 31 30 29 28 27 27 28 28 28 28 28 27 27 29 30 31
26 25 24 23 23 23 23 23 23 24 25 25 25 25 26 25 25 25 25 24 23 23 22 22 21 21 20 19 20 23 25 28 31 33 35 38 40 41 39 35 33 32 32 29 25 23 23 22 22 23 25 25 24 23 22 22 23 24 25 25 25 23 20 21 26 29 29 29 30 31 31 31 30 28 27 28 29 29 29 29 29 28 28 30 32 32
19 20 21 21 22 22 21 22 24 25 26 26 25 25 26 26 25 24 24 22 23 23 22 21 21 20 18 17 18 20 21 24 27 31 34 37 40 41 40 36 33 32 31 30 28 26 24 22 21 22 24 24 24 23 23 23 24 24 25 25 25 24 24 26 29 30 29 28 29 30 32 32 31 29 28 28 29 30 30 30 29 29 29 29 31 32
22 21 22 22 22 23 23 23 24 24 25 26 26 26 27 26 25 25 24 23 23 23 23 23 22 20 16 15 16 16 16 18 21 26 30 34 37 39 39 37 34 33 32 30 29 29 28 26 24 23 22 21 21 22 23 24 25 25 24 25 24 22 23 25 29 31 31 30 30 31 33 33 32 29 27 27 28 29 30 30 30 29 29 29 29 30
24 24 23 23 24 24 23 24 24 23 23 23 25 27 27 26 24 23 23 23 22 21 22 23 23 20 16 16 15 15 14 15 17 20 24 28 32 34 35 34 33 33 32 31 29 29 29 29 29 27 25 21 18 18 20 23 25 26 26 25 24 22 22 24 27 30 32 32 32 33 35 34 31 28 27 27 27 28 29 30 30 29 28 28 28 28
25 25 25 25 25 25 24 24 23 24 24 24 25 25 25 25 24 23 22 21 21 20 21 21 20 18 16 16 16 16 16 17 18 19 20 23 27 29 30 29 29 29 29 28 27 26 26 27 29 30 29 25 21 19 20 22 24 25 25 25 24 23 22 24 26 29 31 32 34 36 37 35 31 28 27 26 26 26 27 29 29 29 27 26 26 26
24 24 25 26 25 24 23 23 24 24 23 23 23 22 22 24 24 24 22 22 21 21 21 20 18 16 14 15 16 17 18 19 19 20 20 22 24 25 25 24 24 23 23 22 22 22 22 23 25 27 28 26 25 23 21 22 23 25 25 26 25 23 23 24 26 28 30 32 34 36 37 35 32 30 29 26 24 24 26 28 29 29 27 26 24 24
24 24 25 25 26 26 25 25 25 24 23 22 22 22 22 23 23 23 23 23 22 22 21 20 18 15 13 14 15 16 17 18 18 19 20 21 22 23 23 23 22 21 19 18 18 17 17 17 18 20 23 24 24 24 23 23 23 24 24 24 24 24 24 24 25 28 30 31 33 35 36 33 31 30 29 26 23 23 24 26 28 29 28 26 24 23
24 25 24 25 25 25 25 25 25 24 23 23 23 23 23 22 22 22 22 22 22 21 20 20 18 16 15 15 16 16 17 18 17 17 18 20 22 23 23 23 23 21 17 13 11 10 9 8 8 9 12 18 22 24 25 25 24 23 22 22 23 24 23 24 26 28 30 31 32 34 34 31 29 28 27 25 23 21 21 23 26 29 29 26 24 23
Wind_Direction
279 279 279 277 276 276 276 277 278 279 280 280 280 280 279 278 279 282 284 285 283 279 274 269 264 260 256 253 252 252 253 256 258 258 254 247 239 234 231 230 230 230 232 234 236 237 239 240 239 239 238 238 239 239 240 241 241 241 242 243 244 246 247 246 243 238 233 229 225 222 218 216 216 216 218 221 223 224 222 216 210 204 200 198 197 197
279 279 278 276 274 273 274 276 277 277 278 279 279 277 277 278 280 283 285 285 285 283 280 277 272 267 263 259 257 256 254 254 253 250 246 239 234 230 228 227 227 228 231 234 237 240 242 242 241 240 239 240 240 241 241 242 242 242 242 243 244 245 245 244 239 233 226 221 217 215 214 215 216 217 219 220 222 223 220 214 208 204 201 199 199 199
280 280 278 278 278 277 276 277 277 277 278 278 278 278 278 280 282 284 285 285 285 284 282 279 276 271 267 263 260 256 251 247 242 238 234 230 227 226 226 226 227 229 232 235 239 241 243 243 242 241 241 241 241 242 242 242 241 241 241 241 241 241 240 238 234 229 223 216 213 212 214 217 219 220 220 221 221 220 215 211 207 204 202 201 201 200
279 277 276 277 278 276 275 275 276 276 277 278 279 280 281 281 281 282 283 284 284 283 281 279 275 271 267 263 258 252 244 236 230 226 224 224 224 225 227 228 229 231 234 237 240 242 243 243 243 243 243 243 243 243 241 240 238 237 237 236 236 235 233 230 227 224 221 217 214 215 217 221 223 223 222 221 218 214 210 207 206 205 203 202 201 200
278 276 276 276 275 273 273 272 273 274 275 276 278 279 280 279 279 280 281 281 280 279 277 275 272 268 264 259 253 245 236 229 224 223 224 225 227 229 230 232 233 235 237 239 241 242 243 244 244 245 245 245 245 243 240 237 235 233 232 232 231 229 227 223 221 220 220 219 218 218 219 221 223 224 222 218 213 208 205 203 203 203 202 202 201 201
277 276 275 274 273 272 272 272 272 272 274 275 276 277 277 277 277 277 277 276 276 275 274 271 268 264 259 254 247 239 232 228 228 230 232 233 234 235 235 236 237 239 240 241 242 242 242 244 245 246 247 246 244 241 238 234 231 230 229 229 228 227 224 221 220 221 222 221 220 219 218 219 221 221 219 214 209 205 202 200 200 200 201 202 203 203
279 277 275 273 272 272 271 271 271 272 272 273 275 275 275 275 275 274 273 273 273 273 271 269 264 259 254 248 242 236 231 230 233 237 239 240 240 240 240 240 241 242 242 242 242 241 242 242 244 245 245 243 241 237 233 230 227 226 226 227 227 226 223 222 222 223 223 222 220 218 216 216 218 218 216 211 207 203 201 199 198 198 200 202 203 203
282 281 277 275 274 274 273 272 271 270 269 270 271 273 274 274 274 273 272 272 271 270 269 266 261 255 249 243 238 234 233 234 237 240 243 244 245 244 244 244 244 244 244 243 242 241 240 240 241 241 241 239 236 233 229 226 224 223 224 225 226 226 225 225 226 226 224 221 218 216 213 213 214 215 214 210 207 204 201 198 197 197 198 200 200 199
279 280 278 276 275 276 276 274 272 269 267 266 266 268 270 272 272 272 271 270 269 267 265 262 259 254 249 244 239 236 236 238 240 243 245 247 247 247 246 246 245 245 245 244 243 241 239 238 238 238 236 234 231 228 226 224 223 222 222 224 226 227 227 228 229 228 224 220 217 214 211 210 211 212 211 209 207 204 201 197 195 195 196 196 196 194
275 276 276 276 273 271 270 272 271 268 265 265 264 264 265 267 269 270 269 266 264 264 262 259 256 254 252 249 245 242 242 242 244 246 247 248 249 248 248 247 247 247 246 245 244 241 238 236 235 234 233 230 227 225 224 224 223 223 223 224 226 228 230 232 232 229 224 220 216 212 210 208 208 209 209 208 206 203 200 196 194 193 193 193 193 192
276 276 277 277 274 269 263 264 265 264 262 264 264 262 260 259 262 266 266 265 263 261 259 258 255 253 251 251 250 249 248 248 248 249 250 250 251 250 250 249 248 248 248 247 245 242 237 234 233 232 231 229 226 223 222 223 223 223 223 224 226 229 232 234 234 230 224 219 215 212 210 208 207 207 208 207 204 201 198 195 193 192 192 192 191 192
280 281 280 279 277 273 266 261 259 259 257 259 260 259 257 254 256 259 262 264 263 261 259 257 256 254 252 250 251 252 252 252 252 253 253 253 253 253 252 251 250 250 250 249 247 242 237 233 231 231 230 229 226 223 221 222 223 223 224 225 226 229 232 235 234 229 223 219 214 211 209 207 207 207 208 206 203 200 198 195 194 193 193 192 191 191
280 281 281 279 277 275 271 267 261 256 254 254 253 254 257 256 255 255 256 258 260 260 258 256 255 255 255 253 251 250 251 252 253 255 255 256 256 255 253 253 252 251 250 249 247 242 236 231 230 230 229 228 225 223 221 221 222 223 224 225 226 228 231 233 232 228 223 218 214 210 208 208 208 207 206 205 202 200 198 196 195 195 194 193 191 191
281 281 280 278 276 274 272 269 267 266 263 257 254 254 257 258 258 257 256 255 255 256 256 255 255 255 256 254 252 250 248 249 251 253 255 256 256 255 254 253 252 252 251 249 246 241 236 230 228 227 228 226 224 222 220 220 221 223 224 225 225 227 229 231 230 226 222 218 214 210 207 207 206 205 203 201 199 198 197 195 194 193 192 191 190 190
282 282 281 278 275 274 272 270 269 268 268 262 256 253 255 257 257 255 253 252 253 254 253 252 254 255 255 253 252 251 248 246 246 248 250 253 255 255 253 252 252 253 251 249 246 243 238 231 227 225 224 223 221 219 219 219 220 222 224 225 225 226 227 228 226 224 220 217 213 209 205 204 202 200 197 195 194 194 193 192 190 189 188 187 188 189
281 281 280 279 278 276 274 273 272 271 269 265 258 253 253 252 250 248 247 251 253 251 248 249 252 254 254 253 252 251 248 244 243 245 248 250 252 252 252 249 249 250 250 248 246 244 240 234 229 225 223 221 220 219 218 218 219 222 224 224 224 224 224 223 222 220 218 216 213 208 204 201 199 196 193 191 190 189 188 187 186 185 185 185 187 188
278 278 278 278 278 277 276 276 275 273 272 268 262 255 249 248 248 248 246 248 250 250 247 246 247 252 254 253 250 247 244 241 242 246 249 250 250 251 250 247 244 245 246 246 244 243 240 235 230 226 223 221 220 220 219 218 219 221 223 223 223 223 222 220 218 217 216 215 212 207 203 200 198 195 192 189 188 188 187 186 186 186 186 188 188 189
275 275 276 276 276 276 278 278 278 278 278 273 266 258 251 248 247 245 243 244 245 246 246 245 244 246 251 251 247 242 237 233 234 239 245 248 249 249 249 246 243 242 243 242 242 242 239 236 232 227 224 222 221 221 221 219 219 221 222 222 222 221 220 218 216 214 213 213 211 208 203 201 199 196 194 192 191 191 191 191 191 192 193 193 192 191
274 273 273 274 276 277 278 277 279 281 284 283 279 270 259 249 242 239 240 240 240 240 242 243 245 245 247 248 248 243 233 225 222 226 237 244 246 246 245 242 240 240 240 239 240 239 238 236 234 230 227 224 223 222 222 221 220 221 222 221 221 220 219 217 214 212 211 211 210 209 206 203 202 200 199 198 197 197 197 198 199 200 200 198 195 193
273 272 271 273 276 277 277 275 275 277 280 285 288 284 273 262 251 243 240 240 240 240 241 242 243 243 244 246 246 242 233 222 215 218 232 240 244 243 240 236 234 235 236 237 237 237 236 235 233 231 229 226 224 223 223 222 221 221 221 220 220 219 218 216 214 211 210 209 209 209 208 207 206 205 204 204 203 203 204 204 204 205 204 201 198 195
273 272 270 271 273 274 274 273 273 273 275 280 285 285 281 275 265 255 248 244 242 241 240 239 239 240 241 242 242 239 232 220 212 214 229 241 244 242 235 231 230 231 234 236 237 236 235 234 233 232 230 227 225 224 223 223 222 221 220 219 219 218 217 216 214 212 210 209 209 209 209 209 209 210 209 208 208 208 209 209 208 207 205 202 198 196
269 269 268 267 267 268 270 271 272 272 272 276 278 279 279 280 276 268 261 252 246 240 236 235 236 237 237 239 240 237 232 225 218 217 225 236 241 238 231 227 226 227 232 236 238 237 236 235 234 233 231 229 226 224 223 223 222 221 220 218 218 217 216 215 214 212 210 209 209 209 210 210 211 211 210 210 211 212 213 212 210 207 204 201 198 196
264 265 266 264 263 263 266 268 269 269 269 270 270 270 272 278 280 279 275 268 259 250 243 240 239 238 237 238 237 235 232 229 225 222 221 231 242 238 226 221 221 224 231 236 238 238 237 236 236 235 233 230 227 224 223 222 221 220 218 217 216 216 215 214 213 211 210 209 209 209 210 211 211 211 209 209 211 213 213 212 209 206 202 200 198 197
266 266 265 263 261 260 261 263 265 266 266 265 265 265 268 272 276 279 280 279 275 270 265 260 253 247 244 242 237 232 229 227 224 220 219 229 237 234 222 215 215 220 229 235 237 238 238 238 237 237 234 231 227 225 222 221 220 218 217 216 215 215 214 213 211 210 209 209 208 209 209 210 211 210 209 209 209 211 210 208 205 202 200 199 199 199
273 272 269 266 264 262 261 263 264 264 264 263 263 263 265 267 271 275 278 280 280 279 276 271 264 256 251 247 238 229 226 223 219 216 216 225 232 230 219 211 211 216 227 233 236 237 237 236 236 235 234 230 227 225 222 220 219 217 215 214 214 213 212 211 210 209 208 208 208 208 209 210 210 210 208 208 208 208 206 204 202 200 200 200 201 203
278 278 277 276 274 272 270 269 269 268 266 264 264 264 264 266 268 270 272 273 275 276 275 269 261 255 250 243 234 224 220 218 216 215 214 220 227 226 216 211 210 214 223 230 233 235 234 233 232 231 229 227 225 223 221 219 217 215 214 213 212 212 210 209 208 207 206 206 206 207 208 209 209 209 208 208 207 205 203 201 200 200 200 202 204 208
278 279 280 280 280 279 279 278 278 277 275 273 270 268 267 266 266 265 264 265 266 268 266 262 255 250 246 241 232 221 212 210 212 213 212 214 217 217 211 209 209 211 216 224 230 232 230 229 228 226 224 222 220 219 218 218 216 214 213 211 211 209 208 207 205 205 204 204 205 205 206 208 208 207 207 206 205 203 201 200 200 201 202 205 207 211
276 277 278 278 279 280 281 282 284 284 283 282 280 277 273 269 265 260 258 260 261 261 259 255 251 247 239 234 226 216 206 204 208 210 210 210 216 219 207 205 206 207 208 215 223 226 224 223 222 221 219 217 214 213 213 213 213 213 212 210 209 207 206 204 203 203 203 203 203 204 205 207 206 206 205 204 203 202 201 201 202 203 205 206 208 209
274 273 274 274 275 276 277 279 280 281 281 282 282 282 280 274 267 261 259 259 259 258 258 259 259 255 247 235 221 204 199 202 206 208 206 207 215 218 202 200 201 201 197 197 206 214 216 217 218 217 215 212 209 206 206 206 207 208 208 207 205 204 203 202 201 201 201 201 202 203 204 205 205 204 203 202 202 202 202 202 203 204 205 205 205 203
272 271 271 272 273 274 275 276 276 276 276 277 277 278 278 275 270 266 263 260 257 256 259 261 260 257 252 245 230 195 197 202 205 204 203 205 211 208 192 192 195 194 187 179 175 199 215 217 216 213 211 207 204 201 200 199 198 199 199 199 199 198 198 198 198 198 199 199 200 201 202 202 202 201 201 201 201 202 202 202 202 202 201 201 199 196
270 270 269 270 271 272 273 274 274 274 274 273 273 272 272 270 269 267 265 261 257 255 256 258 258 256 253 250 244 225 207 200 201 203 204 205 208 203 185 188 191 191 187 184 173 108 219 218 215 212 207 202 199 197 195 193 192 191 190 189 189 190 192 193 194 195 196 197 198 199 199 198 198 198 199 199 200 199 199 198 198 198 196 194 190 188
269 268 268 268 268 268 268 270 271 273 273 272 271 269 268 266 265 264 263 261 257 255 255 256 256 255 252 250 246 243 228 196 199 202 203 205 207 201 191 191 190 189 191 193 195 197 190 189 206 206 201 197 193 191 190 189 188 186 185 183 182 183 185 187 188 189 190 192 194 195 195 194 194 194 195 195 194 194 194 194 195 195 193 189 185 183
274 271 270 269 269 268 267 267 269 270 271 270 269 268 266 265 263 262 260 259 258 256 256 255 255 255 253 252 251 248 240 211 202 203 203 203 202 198 193 191 189 187 190 195 200 204 198 176 180 190 195 193 190 186 185 185 184 183 182 180 179 179 180 181 182 182 183 184 186 187 188 189 189 189 189 188 188 188 189 191 193 193 191 188 184 182
280 278 276 275 274 273 272 271 270 269 268 268 267 266 265 264 263 261 259 257 257 256 256 256 255 255 254 253 253 251 246 229 211 205 204 201 199 195 191 190 187 185 185 191 197 199 190 174 170 175 185 191 189 184 181 181 181 182 181 180 178 176 176 177 177 177 177 177 178 178 180 181 182 183 183 182 183 184 187 189 191 192 192 189 186 183
277 276 276 275 275 274 273 271 269 268 267 266 265 264 263 262 261 260 258 257 255 254 254 254 253 253 252 252 253 253 248 234 217 208 205 201 198 195 191 191 189 185 182 187 190 188 174 170 170 170 172 184 188 186 180 178 179 180 181 180 178 176 176 176 175 174 173 173 173 173 174 176 177 177 178 179 180 183 186 189 190 191 192 192 189 185
273 272 272 271 270 269 269 268 267 266 265 264 263 262 261 260 260 259 258 257 255 254 253 252 252 252 251 251 252 252 249 236 224 215 209 204 199 196 194 195 193 188 185 188 190 188 182 175 173 171 169 174 184 189 184 179 177 177 178 178 177 176 176 176 176 174 172 171 172 172 173 174 175 175 176 177 179 182 185 187 188 190 191 192 190 187
271 270 268 266 265 264 265 265 264 264 263 263 262 261 261 260 260 259 259 258 257 256 254 253 252 252 253 253 253 253 251 244 229 217 209 204 201 199 197 198 195 191 189 188 188 187 183 176 172 174 175 177 179 182 184 179 176 174 175 176 175 174 174 175 175 174 172 172 172 173 173 174 174 174 175 175 177 179 182 185 186 188 189 190 190 188
267 265 264 262 260 260 261 262 262 262 261 260 260 261 262 262 261 261 260 260 259 258 257 255 254 254 255 256 257 256 254 250 234 217 206 202 201 201 200 198 196 195 194 191 187 183 180 175 171 174 182 186 183 179 177 175 174 173 174 175 175 174 173 174 174 174 173 172 173 173 173 174 173 172 171 172 173 175 177 180 182 185 187 189 189 189
265 264 264 263 262 261 261 261 262 261 259 258 259 261 262 263 263 262 261 260 259 258 257 256 256 256 257 258 259 258 255 251 240 224 211 205 204 204 202 198 196 196 197 194 190 186 183 182 182 181 181 183 182 179 177 175 175 174 172 171 172 174 175 175 175 174 174 173 172 172 172 173 172 170 169 170 172 173 174 175 178 181 182 184 185 187
268 267 267 266 265 263 263 262 262 262 260 259 260 262 264 265 265 264 262 260 259 258 258 258 257 257 257 258 258 257 254 251 244 234 222 214 211 209 205 201 198 196 195 193 191 188 187 188 187 184 182 180 178 176 176 177 177 174 169 167 170 174 176 176 176 176 175 173 172 171 172 172 171 170 169 171 173 174 174 174 175 177 178 179 180 181
268 266 266 265 264 264 263 263 262 262 262 263 264 265 265 265 265 265 264 261 259 258 258 256 255 255 256 257 257 257 255 249 244 236 226 219 215 212 208 205 200 196 193 191 189 189 189 189 186 182 180 178 176 175 175 178 178 175 172 172 174 175 175 176 177 176 175 174 173 172 172 172 171 171 171 173 175 176 176 175 174 175 177 179 180 179
265 264 263 263 262 262 262 262 262 262 262 263 264 264 265 265 264 264 263 261 260 258 255 252 251 252 252 254 256 256 253 248 241 234 226 219 214 211 210 206 201 196 192 189 188 189 190 190 186 182 179 176 174 173 176 178 179 178 177 176 173 170 171 176 178 177 175 174 174 173 172 172 172 172 173 175 177 178 177 176 175 175 177 180 181 181
263 262 262 262 262 262 263 263 262 261 261 261 261 262 262 262 262 261 262 261 260 258 255 251 248 248 249 252 254 252 249 244 238 232 225 219 214 211 209 204 200 196 192 187 186 189 190 190 188 185 183 178 174 173 173 176 179 181 181 178 171 166 167 175 178 177 176 175 174 173 173 172 173 173 174 176 177 178 178 178 177 178 179 181 183 183
262 263 263 263 263 263 263 262 261 260 261 260 260 259 260 260 259 259 260 259 258 257 255 251 250 249 250 250 249 246 242 237 233 229 224 219 215 211 208 202 198 196 193 189 186 187 187 188 188 186 183 179 176 174 173 175 178 181 182 178 174 172 173 174 174 175 175 175 174 174 174 173 173 173 174 176 178 178 179 179 180 181 184 185 186 186
273 271 270 268 266 264 261 259 260 261 261 260 259 258 259 259 258 257 258 256 255 254 252 250 253 255 254 251 247 240 231 226 222 220 218 216 214 211 207 202 198 196 194 192 190 188 186 185 183 182 179 177 176 175 175 175 177 179 181 180 178 178 177 173 173 173 173 174 174 174 174 174 173 172 173 175 177 179 180 181 182 184 186 188 189 189
283 279 275 272 270 267 264 262 261 261 260 259 259 258 258 257 256 255 254 253 252 252 250 251 254 258 257 251 243 234 222 215 210 208 208 208 208 206 204 202 199 197 196 194 193 192 189 186 181 176 172 172 174 176 177 176 176 178 179 179 178 176 174 173 174 175 174 174 174 174 175 174 173 171 170 172 175 178 181 183 184 186 187 189 190 191
277 276 274 272 271 269 267 266 264 261 258 256 257 258 257 256 254 252 251 250 249 249 249 252 254 255 252 246 237 226 217 213 211 208 204 202 201 201 200 199 199 199 197 195 194 194 193 190 185 178 172 169 171 174 177 177 177 177 178 177 176 174 172 174 175 176 176 174 173 173 174 173 172 170 170 171 172 175 179 184 187 189 189 190 191 193
272 271 271 270 270 269 267 265 263 261 260 258 257 256 254 254 253 252 251 250 248 248 249 251 252 250 245 238 230 223 216 212 210 207 203 199 197 196 195 194 193 192 192 191 191 190 190 188 185 181 177 173 172 173 175 176 177 177 176 175 175 174 173 175 176 177 177 175 174 174 173 172 171 170 169 168 169 171 176 181 186 190 191 192 192 193
267 266 267 268 268 266 264 263 262 261 259 259 257 255 254 255 253 251 251 249 247 246 247 248 247 243 238 233 228 222 216 211 207 202 198 193 190 187 185 182 179 176 174 174 175 176 176 177 178 179 180 179 176 173 172 174 175 176 175 175 174 174 174 175 176 176 176 175 175 175 174 174 173 172 169 166 165 168 172 177 182 187 190 192 194 194
264 264 263 264 265 265 264 263 262 261 259 258 257 258 258 257 254 250 248 246 245 244 244 243 241 236 232 229 225 220 214 209 204 198 192 187 181 177 172 168 162 156 150 148 148 150 151 154 162 171 177 180 179 175 171 170 171 172 173 174 175 175 174 173 174 175 175 174 174 174 174 174 174 172 169 166 165 166 168 173 178 182 187 190 193 194
267 265 263 262 263 263 262 261 260 258 257 257 258 258 260 259 256 252 247 245 244 243 240 237 234 230 229 228 224 217 209 203 197 191 186 181 176 171 166 162 157 150 143 138 135 134 130 127 134 150 165 175 178 177 174 169 167 167 170 172 174 174 172 172 172 173 173 173 173 173 173 172 172 171 169 167 165 164 166 170 175 179 184 187 190 191